Weather History for Natchitoches, LA

Change the Weather History Date:

Thursday, June 20, 2013

  Actual Average Record
Temperature  
Mean Temperature 82 °F -  
Max Temperature 92 °F 92 °F 104 °F (1936)
Min Temperature 71 °F 70 °F 59 °F (1945)
Cooling Degree Days 16    
Growing Degree Days 32 (Base 50)    
Moisture  
Dew Point 73 °F    
Average Humidity 79    
Maximum Humidity 100    
Minimum Humidity 49    
Precipitation  
Precipitation 0.00 in - - ()
Sea Level Pressure  
Sea Level Pressure 30.05 in    
Wind  
Wind Speed 1 mph (SW)    
Max Wind Speed 6 mph    
Max Gust Speed -    
Visibility 8 miles    
Events Fog    
Averages and records for this station are not official NWS values.
T = Trace of Precipitation, MM = Missing Value Source: NWS Daily Summary

Daily Weather History Graph

Daily Weather History Graph

Search for Another Location

Airport:

Trip Planner

Search our weather history database for the weather conditions in past years. The results will help you decide how hot, cold, wet, or windy it might be!

Date:

Astronomy

Jun. 20, 2013 Rise Set
Actual Time 6:07 AM CDT 8:20 PM CDT
Civil Twilight 5:39 AM CDT 8:48 PM CDT
Nautical Twilight 5:04 AM CDT 9:23 PM CDT
Astronomical Twilight 4:27 AM CDT 10:00 PM CDT
Moon 5:29 PM CDT (6/20) 3:26 AM CDT (6/20)
Length of Visible Light 15h 09m
Length of Day
14h 13m
Waxing Gibbous, 89% of the Moon is Illuminated
Jun 20
Waxing Gibbous
Jun 23
Full
Jun 29
Last Quarter
Jul 8
New
Jul 15
First Quarter

Hourly Weather History & Observations

Time (CDT) Temp. Heat Index Dew Point Humidity Pressure Visibility Wind Dir Wind Speed Gust Speed Precip Events Conditions
12:15 AM 72.5 °F - 71.6 °F 97% 30.03 in 10.0 mi Calm Calm - N/A   Clear
12:35 AM 72.9 °F - 71.8 °F 96% 30.03 in 10.0 mi Calm Calm - N/A   Clear
12:55 AM 72.3 °F - 71.8 °F 98% 30.03 in 7.0 mi Calm Calm - N/A   Clear
1:15 AM 72.0 °F - 71.8 °F 99% 30.03 in 7.0 mi Calm Calm - N/A   Clear
1:35 AM 71.8 °F - 71.6 °F 99% 30.03 in 7.0 mi Calm Calm - N/A   Clear
1:55 AM 71.6 °F - 71.2 °F 99% 30.02 in 5.0 mi Calm Calm - N/A   Clear
2:15 AM 71.2 °F - 71.1 °F 99% 30.01 in 5.0 mi Calm Calm - N/A   Clear
2:35 AM 71.4 °F - 71.2 °F 99% 30.01 in 7.0 mi Calm Calm - N/A   Clear
2:55 AM 71.2 °F - 71.1 °F 99% 30.01 in 5.0 mi Calm Calm - N/A   Scattered Clouds
3:15 AM 71.1 °F - 70.9 °F 99% 30.01 in 1.0 mi Calm Calm - N/A   Overcast
3:35 AM 71.1 °F - 71.1 °F 100% 30.01 in 0.8 mi Calm Calm - N/A   Overcast
3:55 AM 71.1 °F - 71.1 °F 100% 30.01 in 0.5 mi Calm Calm - N/A Fog Fog
4:15 AM 71.1 °F - 71.1 °F 100% 30.01 in 0.5 mi Calm Calm - N/A Fog Fog
4:35 AM 71.4 °F - 71.4 °F 100% 30.02 in 0.5 mi Calm Calm - N/A Fog Fog
4:55 AM 71.6 °F - 71.6 °F 100% 30.02 in 0.5 mi Calm Calm - N/A Fog Fog
5:15 AM 71.6 °F - 71.6 °F 100% 30.03 in 0.5 mi Calm Calm - N/A Fog Fog
5:35 AM 71.6 °F - 71.6 °F 100% 30.03 in 1.0 mi Calm Calm - N/A   Overcast
5:55 AM 71.2 °F - 71.2 °F 100% 30.04 in 3.0 mi Calm Calm - N/A   Overcast
6:15 AM 71.6 °F - 71.6 °F 100% 30.05 in 4.0 mi Calm Calm - N/A   Overcast
6:35 AM 71.6 °F - 71.6 °F 100% 30.05 in 5.0 mi Calm Calm - N/A   Overcast
6:55 AM 71.8 °F - 71.6 °F 99% 30.06 in 5.0 mi Calm Calm - N/A   Mostly Cloudy
7:15 AM 72.5 °F - 72.1 °F 99% 30.07 in 5.0 mi Calm Calm - N/A   Mostly Cloudy
7:35 AM 73.4 °F - 72.5 °F 97% 30.08 in 7.0 mi Calm Calm - N/A   Mostly Cloudy
7:55 AM 75.2 °F - 73.2 °F 94% 30.08 in 7.0 mi Calm Calm - N/A   Mostly Cloudy
8:15 AM 76.6 °F - 73.4 °F 90% 30.09 in 10.0 mi Calm Calm - N/A   Clear
8:35 AM 78.3 °F - 74.3 °F 88% 30.09 in 10.0 mi Calm Calm - N/A   Clear
8:55 AM 79.2 °F - 74.8 °F 87% 30.10 in 10.0 mi Calm Calm - N/A   Clear
9:15 AM 80.8 °F 86.9 °F 75.7 °F 85% 30.10 in 10.0 mi Calm Calm - N/A   Clear
9:35 AM 82.2 °F 89.9 °F 76.3 °F 82% 30.11 in 10.0 mi Calm Calm - N/A   Scattered Clouds
9:55 AM 83.8 °F 93.2 °F 76.8 °F 79% 30.11 in 10.0 mi West 3.5 mph - N/A   Mostly Cloudy
10:15 AM 84.4 °F 93.5 °F 76.1 °F 76% 30.11 in 10.0 mi Calm Calm - N/A   Scattered Clouds
10:35 AM 85.3 °F 95.4 °F 76.5 °F 75% 30.11 in 10.0 mi South 5.8 mph - N/A   Mostly Cloudy
10:55 AM 84.9 °F 92.9 °F 74.7 °F 71% 30.11 in 10.0 mi West 5.8 mph - N/A   Mostly Cloudy
11:15 AM 86.2 °F 96.0 °F 75.9 °F 71% 30.10 in 10.0 mi WSW 4.6 mph - N/A   Scattered Clouds
11:35 AM 86.9 °F 95.0 °F 73.9 °F 65% 30.11 in 10.0 mi Calm Calm - N/A   Scattered Clouds
11:55 AM 86.9 °F 95.0 °F 73.8 °F 65% 30.10 in 10.0 mi WNW 4.6 mph - N/A   Scattered Clouds
12:15 PM 87.3 °F 96.3 °F 74.7 °F 66% 30.10 in 10.0 mi SW 4.6 mph - N/A   Scattered Clouds
12:35 PM 88.5 °F 95.8 °F 72.3 °F 59% 30.10 in 10.0 mi SSW 3.5 mph - N/A   Clear
12:55 PM 86.2 °F 94.6 °F 74.5 °F 68% 30.09 in 10.0 mi West 4.6 mph - N/A   Mostly Cloudy
1:15 PM 87.6 °F 95.7 °F 73.6 °F 63% 30.09 in 10.0 mi Calm Calm - N/A   Mostly Cloudy
1:35 PM 89.4 °F 98.3 °F 73.8 °F 60% 30.08 in 10.0 mi West 5.8 mph - N/A   Scattered Clouds
1:55 PM 89.1 °F 95.5 °F 71.6 °F 56% 30.08 in 10.0 mi Calm Calm - N/A   Scattered Clouds
2:15 PM 90.1 °F 99.4 °F 73.9 °F 59% 30.07 in 10.0 mi Calm Calm - N/A   Scattered Clouds
2:35 PM 90.9 °F 100.6 °F 74.1 °F 58% 30.06 in 10.0 mi Calm Calm - N/A   Clear
2:55 PM 90.3 °F 99.3 °F 73.9 °F 58% 30.06 in 10.0 mi West 5.8 mph - N/A   Scattered Clouds
3:15 PM 89.2 °F 96.9 °F 72.5 °F 58% 30.05 in 10.0 mi Calm Calm - N/A   Scattered Clouds
3:35 PM 91.6 °F 98.8 °F 71.4 °F 52% 30.05 in 10.0 mi West 5.8 mph - N/A   Scattered Clouds
3:55 PM 90.0 °F 96.9 °F 71.8 °F 55% 30.05 in 10.0 mi Calm Calm - N/A   Scattered Clouds
4:15 PM 91.0 °F 98.2 °F 71.6 °F 53% 30.04 in 10.0 mi Calm Calm - N/A   Scattered Clouds
4:35 PM 92.5 °F 100.1 °F 72.0 °F 51% 30.04 in 10.0 mi WSW 4.6 mph - N/A   Clear
4:55 PM 91.2 °F 97.5 °F 71.1 °F 51% 30.03 in 10.0 mi Calm Calm - N/A   Clear
5:15 PM 91.9 °F 97.9 °F 70.2 °F 49% 30.03 in 10.0 mi Calm Calm - N/A   Clear
5:35 PM 91.8 °F 98.6 °F 71.2 °F 51% 30.03 in 10.0 mi Calm Calm - N/A   Clear
5:55 PM 91.8 °F 98.6 °F 71.4 °F 51% 30.03 in 10.0 mi Calm Calm - N/A   Clear
6:15 PM 91.4 °F 98.4 °F 71.8 °F 52% 30.02 in 10.0 mi WSW 3.5 mph - N/A   Clear
6:35 PM 91.4 °F 98.9 °F 72.1 °F 53% 30.02 in 10.0 mi Calm Calm - N/A   Clear
6:55 PM 90.5 °F 98.1 °F 72.1 °F 55% 30.02 in 10.0 mi Calm Calm - N/A   Clear
7:15 PM 89.6 °F 98.2 °F 73.6 °F 59% 30.02 in 10.0 mi Calm Calm - N/A   Clear
7:35 PM 88.0 °F 99.1 °F 76.3 °F 68% 30.03 in 10.0 mi Calm Calm - N/A   Clear
7:55 PM 86.0 °F 96.9 °F 77.0 °F 74% 30.02 in 10.0 mi Calm Calm - N/A   Clear
8:15 PM 83.3 °F 91.4 °F 75.7 °F 78% 30.03 in 10.0 mi Calm Calm - N/A   Clear
8:35 PM 83.3 °F 92.4 °F 76.8 °F 81% 30.03 in 10.0 mi Calm Calm - N/A   Clear
8:55 PM 81.9 °F 90.0 °F 77.4 °F 86% 30.04 in 10.0 mi SSE 4.6 mph - N/A   Scattered Clouds
9:15 PM 80.8 °F 87.2 °F 76.5 °F 87% 30.04 in 10.0 mi South 4.6 mph - N/A   Clear
9:35 PM 80.8 °F 86.1 °F 74.3 °F 81% 30.05 in 10.0 mi SE 4.6 mph - N/A   Clear
9:55 PM 79.5 °F - 73.8 °F 82% 30.05 in 10.0 mi SSE 5.8 mph - N/A   Clear
10:15 PM 78.4 °F - 73.4 °F 84% 30.06 in 10.0 mi SSE 4.6 mph - N/A   Clear
10:35 PM 77.5 °F - 73.6 °F 88% 30.06 in 10.0 mi South 4.6 mph - N/A   Clear
10:55 PM 77.2 °F - 73.8 °F 89% 30.07 in 10.0 mi South 3.5 mph - N/A   Clear
11:15 PM 76.6 °F - 73.4 °F 90% 30.07 in 10.0 mi South 3.5 mph - N/A   Clear
11:35 PM 76.5 °F - 73.4 °F 90% 30.07 in 10.0 mi Calm Calm - N/A   Clear
11:55 PM 75.9 °F - 73.0 °F 91% 30.08 in 10.0 mi Calm Calm - N/A   Clear